TimeEDT,TemperatureF,Dew PointF,Humidity,Sea Level PressureIn,VisibilityMPH,Wind Direction,Wind SpeedMPH,Gust SpeedMPH,PrecipitationIn,Events,Conditions,WindDirDegrees,DateUTC
12:15 AM,48.0,38.3,69,30.20,10.0,Calm,Calm,-,N/A,,Clear,0,2013-10-10 04:15:00
12:35 AM,48.2,37.0,65,30.19,10.0,Calm,Calm,-,N/A,,Clear,0,2013-10-10 04:35:00
12:55 AM,47.7,36.3,65,30.19,10.0,NW,3.5,-,N/A,,Clear,320,2013-10-10 04:55:00
1:15 AM,48.0,36.5,64,30.18,10.0,NW,5.8,-,N/A,,Clear,310,2013-10-10 05:15:00
1:35 AM,46.9,36.7,68,30.17,10.0,Calm,Calm,-,N/A,,Clear,0,2013-10-10 05:35:00
1:55 AM,47.7,36.5,65,30.17,10.0,NNW,4.6,-,N/A,,Clear,330,2013-10-10 05:55:00
2:15 AM,46.6,37.0,69,30.17,10.0,NNW,3.5,-,N/A,,Clear,340,2013-10-10 06:15:00
2:35 AM,46.4,36.7,69,30.16,10.0,Calm,Calm,-,N/A,,Clear,0,2013-10-10 06:35:00
2:55 AM,45.5,36.9,72,30.16,10.0,NE,3.5,-,N/A,,Clear,40,2013-10-10 06:55:00
3:15 AM,46.6,36.0,67,30.16,10.0,North,4.6,-,N/A,,Clear,350,2013-10-10 07:15:00
3:35 AM,46.8,35.2,64,30.16,10.0,NNE,3.5,-,N/A,,Clear,20,2013-10-10 07:35:00
3:55 AM,46.6,34.9,64,30.15,10.0,NNE,3.5,-,N/A,,Clear,30,2013-10-10 07:55:00
4:15 AM,46.4,34.7,64,30.15,10.0,Calm,Calm,-,N/A,,Clear,0,2013-10-10 08:15:00
4:35 AM,46.4,34.7,64,30.15,10.0,Calm,Calm,-,N/A,,Clear,0,2013-10-10 08:35:00
4:55 AM,46.2,34.2,63,30.15,10.0,Calm,Calm,-,N/A,,Clear,0,2013-10-10 08:55:00
5:35 AM,47.7,31.5,53,30.14,10.0,WNW,3.5,-,N/A,,Clear,300,2013-10-10 09:35:00
5:55 AM,48.2,31.5,52,30.15,10.0,Calm,Calm,-,N/A,,Clear,0,2013-10-10 09:55:00
6:15 AM,45.5,32.5,61,30.15,10.0,Calm,Calm,-,N/A,,Clear,0,2013-10-10 10:15:00
6:35 AM,44.6,33.6,65,30.15,10.0,Calm,Calm,-,N/A,,Clear,0,2013-10-10 10:35:00
6:55 AM,46.6,32.9,59,30.15,10.0,West,3.5,-,N/A,,Clear,260,2013-10-10 10:55:00
7:15 AM,44.4,33.8,66,30.16,10.0,Calm,Calm,-,N/A,,Clear,0,2013-10-10 11:15:00
7:35 AM,43.9,34.2,69,30.16,10.0,Calm,Calm,-,N/A,,Clear,0,2013-10-10 11:35:00
7:55 AM,50.9,33.3,51,30.15,10.0,West,3.5,-,N/A,,Scattered Clouds,270,2013-10-10 11:55:00
8:15 AM,52.2,34.7,51,30.15,10.0,West,4.6,-,N/A,,Overcast,270,2013-10-10 12:15:00
8:35 AM,53.2,34.9,50,30.16,10.0,Calm,Calm,-,N/A,,Overcast,0,2013-10-10 12:35:00
8:55 AM,54.9,34.9,47,30.15,10.0,West,3.5,-,N/A,,Overcast,280,2013-10-10 12:55:00
9:15 AM,54.1,39.4,57,30.16,10.0,Calm,Calm,-,N/A,,Overcast,0,2013-10-10 13:15:00
9:35 AM,57.2,37.8,48,30.16,10.0,Calm,Calm,-,N/A,,Mostly Cloudy,0,2013-10-10 13:35:00
9:55 AM,57.0,39.4,52,30.16,7.0,Calm,Calm,-,N/A,,Mostly Cloudy,0,2013-10-10 13:55:00
10:15 AM,57.2,41.0,55,30.16,10.0,NW,5.8,-,N/A,,Overcast,320,2013-10-10 14:15:00
10:35 AM,57.7,41.9,56,30.17,10.0,NW,3.5,-,N/A,,Overcast,320,2013-10-10 14:35:00
10:55 AM,58.3,42.6,56,30.16,10.0,NNW,3.5,-,N/A,,Overcast,340,2013-10-10 14:55:00
11:15 AM,59.9,44.6,57,30.16,10.0,NNW,5.8,-,N/A,,Overcast,330,2013-10-10 15:15:00
11:35 AM,61.0,44.1,54,30.16,10.0,NNW,6.9,-,N/A,,Overcast,330,2013-10-10 15:35:00
11:55 AM,60.4,44.8,56,30.17,10.0,NNW,5.8,-,N/A,,Overcast,330,2013-10-10 15:55:00
12:15 PM,59.5,46.4,62,30.17,10.0,North,6.9,-,N/A,,Overcast,350,2013-10-10 16:15:00
12:35 PM,59.2,46.6,63,30.17,10.0,North,8.1,-,N/A,,Overcast,350,2013-10-10 16:35:00
12:55 PM,58.3,48.2,69,30.16,10.0,NNW,9.2,-,N/A,,Overcast,330,2013-10-10 16:55:00
1:15 PM,57.9,49.1,72,30.16,10.0,NNW,5.8,-,N/A,,Overcast,340,2013-10-10 17:15:00
1:35 PM,59.9,50.2,70,30.15,10.0,NW,6.9,-,N/A,,Overcast,320,2013-10-10 17:35:00
1:55 PM,60.3,50.9,71,30.14,10.0,North,5.8,-,N/A,,Overcast,350,2013-10-10 17:55:00
2:15 PM,61.9,50.7,67,30.13,10.0,North,4.6,-,N/A,,Overcast,350,2013-10-10 18:15:00
2:35 PM,61.0,50.5,68,30.13,10.0,NNW,8.1,-,N/A,,Overcast,330,2013-10-10 18:35:00
2:55 PM,61.0,51.3,70,30.13,10.0,NNW,9.2,-,N/A,,Overcast,330,2013-10-10 18:55:00
3:15 PM,62.1,51.1,67,30.13,10.0,NNW,8.1,-,N/A,,Overcast,340,2013-10-10 19:15:00
3:35 PM,61.7,50.9,68,30.13,10.0,NW,6.9,-,N/A,,Overcast,320,2013-10-10 19:35:00
3:55 PM,59.5,53.4,80,30.13,2.5,NNW,6.9,-,N/A,,Light Drizzle,330,2013-10-10 19:55:00
4:15 PM,58.5,55.6,90,30.13,3.0,NW,3.5,-,N/A,,Overcast,310,2013-10-10 20:15:00
4:35 PM,58.8,55.2,88,30.12,5.0,West,9.2,-,N/A,,Overcast,280,2013-10-10 20:35:00
4:55 PM,57.7,54.5,89,30.12,10.0,NW,8.1,-,N/A,,Overcast,320,2013-10-10 20:55:00
5:15 PM,58.1,54.5,88,30.12,10.0,NW,8.1,-,N/A,,Overcast,310,2013-10-10 21:15:00
5:35 PM,59.2,52.7,79,30.11,10.0,NW,6.9,-,N/A,,Mostly Cloudy,320,2013-10-10 21:35:00
5:55 PM,59.2,51.4,75,30.11,10.0,NNW,8.1,-,N/A,,Mostly Cloudy,330,2013-10-10 21:55:00
6:15 PM,58.8,50.7,74,30.11,10.0,NW,6.9,-,N/A,,Overcast,320,2013-10-10 22:15:00
6:35 PM,58.5,50.4,74,30.10,10.0,NW,8.1,-,N/A,,Overcast,310,2013-10-10 22:35:00
6:55 PM,58.1,50.2,75,30.10,10.0,NW,6.9,-,N/A,,Scattered Clouds,310,2013-10-10 22:55:00
7:15 PM,57.9,50.0,75,30.10,10.0,NW,6.9,-,N/A,,Clear,320,2013-10-10 23:15:00
7:35 PM,57.7,49.6,74,30.10,10.0,NW,10.4,-,N/A,,Scattered Clouds,320,2013-10-10 23:35:00
7:55 PM,58.1,49.5,73,30.10,10.0,NW,11.5,19.6,N/A,,Scattered Clouds,310,2013-10-10 23:55:00
8:15 PM,58.1,48.7,71,30.10,10.0,NW,12.7,21.9,N/A,,Overcast,320,2013-10-11 00:15:00
8:35 PM,58.1,48.6,71,30.10,10.0,NW,10.4,17.3,N/A,,Overcast,320,2013-10-11 00:35:00
8:55 PM,57.7,48.7,72,30.10,10.0,NW,11.5,17.3,N/A,,Mostly Cloudy,320,2013-10-11 00:55:00
9:15 PM,57.6,49.1,73,30.10,10.0,NW,9.2,-,N/A,,Scattered Clouds,310,2013-10-11 01:15:00
9:35 PM,57.6,49.1,73,30.10,10.0,NW,8.1,-,N/A,,Clear,320,2013-10-11 01:35:00
9:55 PM,57.4,49.1,74,30.10,10.0,NW,8.1,-,N/A,,Clear,320,2013-10-11 01:55:00
10:15 PM,57.4,49.1,74,30.10,10.0,NW,6.9,16.1,N/A,,Clear,320,2013-10-11 02:15:00
10:35 PM,57.4,48.6,72,30.09,10.0,NW,10.4,-,N/A,,Scattered Clouds,320,2013-10-11 02:35:00
10:55 PM,57.2,48.4,72,30.08,10.0,NW,12.7,17.3,N/A,,Clear,320,2013-10-11 02:55:00
11:15 PM,57.6,48.2,71,30.08,10.0,NW,6.9,-,N/A,,Clear,320,2013-10-11 03:15:00
11:35 PM,57.6,48.2,71,30.08,10.0,NNW,4.6,-,N/A,,Clear,340,2013-10-11 03:35:00
11:55 PM,57.2,48.2,72,30.08,10.0,NW,4.6,-,N/A,,Clear,320,2013-10-11 03:55:00